Regional Weather Roundup
Issued by NWS Grand Forks, ND

Home | Current Version | Previous Version | Graphics & Text | Print | Product List | Glossary On
Versions: 1 2 3 4 5 6 7 8 9 10 11 12 13 14 15 16 17 18 19 20 21 22 23 24 25 26 27 28 29 30 31 32 33 34 35 36 37 38 39 40 41 42 43 44 45 46 47 48 49 50
000
ASUS43 KFGF 031031
RWRFGF
PRAIRIE TO PINES  WEATHER ROUNDUP
NATIONAL WEATHER SERVICE EASTERN NORTH DAKOTA/GRAND FORKS ND
500 AM CDT SUN MAY 03 2015

 **SATELLITE DATA USED TO AUGMENT SKY COVER AT AUTOMATED STATIONS**
 *****  WEATHER ACROSS EASTERN NORTH DAKOTA  *****

CITY           SKY/WX    TMP DP  RH WIND       PRES   REMARKS
GRAND FORKS    PTCLDY    46  40  79 NW7       29.71R
GRAND FRKS AFB PTCLDY    48  40  73 NW8       29.72R
GRAND FRKS NWS   N/A     46 N/A N/A N6          N/A
DEVILS LAKE    PTCLDY    48  37  66 NW9       29.79R
FARGO          CLEAR     52  43  71 N13       29.69R
WAHPETON ARPT  SUNNY     55  48  76 CALM      29.69R
$$

 ***** WEATHER ACROSS CENTRAL AND WESTERN NORTH DAKOTA  *****

CITY           SKY/WX    TMP DP  RH WIND       PRES   REMARKS
BISMARCK       CLOUDY    55  37  50 NW13      29.86R
MINOT          CLOUDY    49  36  61 W15       29.86R
JAMESTOWN      PTCLDY    50  37  61 N12       29.75R
MINOT AFB      MOCLDY    47  39  72 NW10      29.85R
GARRISON         N/A     49  38  65 NW9       29.87R
WILLISTON      MOCLDY    45  34  65 N6        29.93R
DICKINSON      CLOUDY    50  35  56 N8        29.89R
HETTINGER      PTCLDY    50  36  58 N14       29.88R
$$

 *****  OTHER AIRPORT OBSERVATIONS IN OUR AREA  *****

CITY           SKY/WX    TMP DP  RH WIND       PRES   REMARKS
WALHALLA       FAIR      48  37  66 NW7       29.75R
GRAFTON AIRPOR FAIR      48  41  76 NW10      29.74R
VALLEY CITY AR FAIR      48  39  71 NW9       29.75R
CANDO          FAIR      45  36  70 NW8       29.80R
CAVALIER APRT  FAIR      48  39  71 NW8       29.73S
GWINNER        SUNNY     57  37  47 N14       29.73R
SHEYENNE NWR     N/A     47  45  94 CALM      29.95
ROLLA          NOT AVBL
 ***** THE ABOVE OBSERVATIONS ARE NON NWS ARE NOT QUALITY
       CONTROLLED AND MAY MIS-REPORT RAIN FOR SNOW...
$$

  *****  WEATHER ACROSS NORTHERN MINNESOTA  *****

CITY           SKY/WX    TMP DP  RH WIND       PRES   REMARKS
FLAG ISLAND    CLEAR     50  45  81 NW6       29.65R
WARROAD        CLEAR     45  39  81 CALM      29.68R
ROSEAU         PTCLDY    46  39  76 S3        29.68R
HALLOCK        MOCLDY    45  37  76 NW8       29.71R
THF RVR FALLS  MOCLDY    46  45  93 CALM      29.70R
BAUDETTE       PTCLDY    48  42  80 W7        29.65R
WASKISH        CLEAR     54  48  82 SW9       29.68R
CROOKSTON      MOCLDY    43  39  87 NW5       29.72R
$$
  *****  WEATHER ACROSS CENTRAL AND WEST MINNESOTA  *****

CITY           SKY/WX    TMP DP  RH WIND       PRES   REMARKS
FOSSTON        NOT AVBL
BEMIDJI        CLEAR     56  47  71 W8        29.69R
PARK RAPIDS    CLEAR     58  49  72 S6        29.68R
ELBOW LAKE     FAIR      57  53  86 S9        29.69S
WADENA         CLEAR     55  48  76 SW5       29.69R
DETROIT LAKES  CLEAR     59  50  72 SW7       29.70R
MOORHEAD       CLEAR     48  43  81 N8        29.72R
FERGUS FALLS   CLEAR     57  52  82 S5        29.70R
MORRIS MN      PTCLDY    57  54  88 SE12      29.69F
STAPLES        PTCLDY    55  50  82 S5        29.69S
$$
  *****  WEATHER ELSEWHERE ACROSS MINNESOTA  *****

CITY           SKY/WX    TMP DP  RH WIND       PRES   REMARKS
DULUTH         LGT RAIN  62  50  64 S16       29.69F
INTRNTL FALLS  PTCLDY    44  41  89 CALM      29.64R
ELY            CLOUDY    57  45  62 S5        29.67S
CLOQUET        CLOUDY    63  46  55 S13       29.69F
WHEATON        PTCLDY    55  50  82 SE7       29.70R
BRAINERD       MOCLDY    54  51  90 S6        29.71R
HIBBING        MOCLDY    51  41  68 CALM      29.66S
ALEXANDRIA     MOCLDY    60  54  80 S14       29.72R
SAINT CLOUD    LGT RAIN  60  53  77 S8        29.76R
MINNEAPOLIS    PTCLDY    56  50  80 CALM      29.78R
$$

  *****  WEATHER ACROSS SOUTH DAKOTA  *****

CITY           SKY/WX    TMP DP  RH WIND       PRES   REMARKS
SIOUX FALLS    CLOUDY    59  53  80 CALM      29.70R
BROOKINGS      MOCLDY    57  54  88 S8        29.71F
WATERTOWN      PTCLDY    56  52  86 S8        29.68F
HURON          PTCLDY    59  54  83 S12       29.66S
SISSETON         N/A     55  51  86 SW7       29.67S
ABERDEEN       CLEAR     49  45  86 N7        29.68R
MITCHELL       PTCLDY    58  54  86 SE10      29.69R
PIERRE         PTCLDY    49  33  54 NW9       29.69R
MOBRIDGE       CLEAR     54  38  54 N13       29.76R
RAPID CITY     MOCLDY    55  31  39 N17       29.81R
$$

  *****  SOME WEATHER IN NEARBY STATES *****

CITY           SKY/WX    TMP DP  RH WIND       PRES   REMARKS
GLASGOW MT     PTCLDY    40  31  70 N9        29.97R
GREAT FALLS MT PTCLDY    36  26  67 NE6       30.01R
CHEYENNE WY    MOCLDY    55  33  43 W12G17    29.92S
SCOTTSBLUFF NE MOCLDY    54  41  61 CALM      29.81S
OMAHA NE       MOCLDY    60  57  89 S13       29.77F
DES MOINES IA  LGT RAIN  62  54  74 S13       29.78F
DAVENPORT IA   CLOUDY    62  45  53 S18G24    29.92S
CHICAGO IL     CLOUDY    60  42  51 S8        29.96S
EAU CLAIRE WI  CLEAR     59  48  67 S8        29.79S
LA CROSSE WI   PTCLDY    59  52  77 SE9       29.83F
$$

  *****  SOME NATIONAL WEATHER *****

CITY           SKY/WX    TMP DP  RH WIND       PRES   REMARKS
LA GUARDIA NY  PTCLDY    51  36  56 S5        30.04F
RALEIGH NC     PTCLDY    47  45  93 CALM      30.14R
ATLANTA GA     CLEAR     58  47  66 CALM      30.11R
NEW ORLEANS LA PTCLDY    67  60  78 SE5       30.06R
OKLAHOMA CITY  MOCLDY    63  53  70 S14       29.92S
ALBUQUERQUE NM PTCLDY    56  35  45 S3        30.05S
SALT LAKE CITY CLOUDY    60  42  51 E5        29.87R
LOS ANGELES CA CLOUDY    58  54  86 N3        29.89F
BOISE ID       PTCLDY    50  34  54 SW5       29.85R
SEATTLE WA     CLEAR     49  41  74 NE6       30.01F
$$

*** WEATHER ACROSS MANITOBA...SASKATCHEWAN AND ONTARIO ***
                ***ONTARIO***

CITY           SKY/WX    TMP DP  RH WIND       PRES   REMARKS
GERALDTON      CLOUDY    45  39  81 CALM      29.68F
THUNDER BAY    CLOUDY    36  36 100 W2        29.69R
SIOUX LOOKOUT  MOCLDY    52  46  82 S5        29.60S
TORONTO        PTCLDY    50  39  66 W3        30.00S
BIG TROUT LK   CLEAR     39  39 100 NW7       29.46R
PICKLE LAKE    NOT AVBL
DRYDEN         PTCLDY    52  48  87 SW8       29.61R
KENORA         PTCLDY    50  41  71 NW9       29.65R
$$
                *** MANITOBA***

CITY           SKY/WX    TMP DP  RH WIND       PRES   REMARKS
BRANDON        CLEAR     41  36  81 W12       29.79R
DAUPHIN        CLEAR     45  39  81 W16G24    29.73R
ISLAND LAKE    MOCLDY    39  37  93 VRB2      29.59R
PILOT MOUND      N/A     45  36  70 W7          N/A
THE PAS        LGT RAIN  39  37  93 NW8       29.68R
THOMPSON       CLOUDY    32  28  86 N10       29.71R WCI  24
WINNIPEG       PTCLDY    34  32  93 W8        29.73R
LYNN LAKE      CLOUDY    28  27  93 N9        29.79R WCI  20
CHURCHILL      CLOUDY    23  21  93 N22G29    29.76R WCI   8
GILLAM         MOCLDY    27  23  86 N17G25    29.68R WCI  14
$$
                ***SASKATCHEWAN***

CITY           SKY/WX    TMP DP  RH WIND       PRES   REMARKS
ESTEVAN        PTCLDY    37  34  87 W12       29.89S
KINDERSLEY     PTCLDY    28  28 100 W5        29.97R WCI  23
LLOYDMINSTER   CLEAR     32  30  93 W10       29.94R WCI  24
PRINCE ALBERT  PTCLDY    37  34  87 W10       29.84R
REGINA         CLEAR     34  30  86 W9        29.90R
YORKTON        CLEAR     39  36  87 W10       29.80R
N. BATTLEFORD  CLEAR     34  32  93 NW8       29.95R
LA RONGE       MOCLDY    37  36  93 NW5       29.84R
SASKATOON      CLEAR     36  34  93 NW12      29.91R
SWIFT CURRENT  CLEAR     30  25  80 W13       29.96R WCI  20
$$
NOTE: THESE ARE AUTOMATED STATIONS WITH LIMITED QUALITY CONTROL
      "FAIR" INDICATES FEW OR NO CLOUDS BELOW 12,000 FEET WITH NO
      SIGNIFICANT WEATHER AND/OR OBSTRUCTIONS TO VISIBILITY.
      SKY/WX - SKY CONDITION AND SIGNIFICANT WEATHER.
      TMP - AIR TEMPERATURE.    DP   - DEWPOINT TEMPERATURE.
      RH  - RELATIVE HUMIDITY.  PRES - PRESSURE.
      HX  - HEAT INDEX.         WCI  - WIND CHILL INDEX.
$



USA.gov is the U.S. government's official web portal to all federal, state and local government web resources and services.